Time,TemperatureF,DewpointF,PressureIn,WindDirection,WindDirectionDegrees,WindSpeedMPH,WindSpeedGustMPH,Humidity,HourlyPrecipIn,Conditions,Clouds,dailyrainin,SolarRadiationWatts/m^2,SoftwareType,DateUTC
2013-04-17 00:03:00,62.0,55.0,-100.00,South,190,2.0,5.0,79,0.00,,,0.00,0.000000,,2013-04-17 04:03:00,
2013-04-17 00:13:00,62.0,55.0,-100.00,South,190,2.0,5.0,79,0.00,,,0.00,0.000000,,2013-04-17 04:13:00,
2013-04-17 00:43:00,61.0,55.0,-100.00,North,1,2.0,8.0,80,0.00,,,0.00,0.000000,,2013-04-17 04:43:00,
2013-04-17 00:53:00,61.0,55.0,-100.00,North,1,2.0,8.0,80,0.00,,,0.00,0.000000,,2013-04-17 04:53:00,
2013-04-17 01:03:00,61.0,55.0,-100.00,North,1,2.0,8.0,80,0.00,,,0.00,0.000000,,2013-04-17 05:03:00,
2013-04-17 01:12:00,61.0,55.0,-100.00,North,1,2.0,8.0,80,0.00,,,0.00,0.000000,,2013-04-17 05:12:00,
2013-04-17 01:32:00,61.0,54.0,-100.00,NE,34,4.0,11.0,78,0.00,,,0.00,0.000000,,2013-04-17 05:32:00,
2013-04-17 01:43:00,61.0,54.0,-100.00,NE,34,4.0,11.0,78,0.00,,,0.00,0.000000,,2013-04-17 05:43:00,
2013-04-17 01:52:00,61.0,54.0,-100.00,NE,34,4.0,11.0,78,0.00,,,0.00,0.000000,,2013-04-17 05:52:00,
2013-04-17 02:02:00,61.0,54.0,-100.00,NE,34,4.0,11.0,78,0.00,,,0.00,0.000000,,2013-04-17 06:02:00,
2013-04-17 02:12:00,61.0,54.0,-100.00,NE,34,4.0,11.0,78,0.00,,,0.00,0.000000,,2013-04-17 06:12:00,
2013-04-17 02:32:00,59.0,54.0,-100.00,ESE,117,4.0,9.0,85,0.00,,,0.00,0.000000,,2013-04-17 06:32:00,
2013-04-17 02:42:00,59.0,54.0,-100.00,ESE,117,4.0,9.0,85,0.00,,,0.00,0.000000,,2013-04-17 06:42:00,
2013-04-17 02:52:00,59.0,54.0,-100.00,ESE,117,4.0,9.0,85,0.00,,,0.00,0.000000,,2013-04-17 06:52:00,
2013-04-17 03:02:00,59.0,54.0,-100.00,ESE,117,4.0,9.0,85,0.00,,,0.00,0.000000,,2013-04-17 07:02:00,
2013-04-17 03:12:00,59.0,54.0,-100.00,ESE,117,4.0,9.0,85,0.00,,,0.00,0.000000,,2013-04-17 07:12:00,
2013-04-17 03:42:00,59.0,55.0,-100.00,WNW,285,3.0,8.0,87,0.00,,,0.00,0.000000,,2013-04-17 07:42:00,
2013-04-17 03:52:00,59.0,55.0,-100.00,WNW,285,3.0,8.0,87,0.00,,,0.00,0.000000,,2013-04-17 07:52:00,
2013-04-17 04:02:00,59.0,55.0,-100.00,WNW,285,3.0,8.0,87,0.00,,,0.00,0.000000,,2013-04-17 08:02:00,
2013-04-17 04:12:00,59.0,55.0,-100.00,WNW,285,3.0,8.0,87,0.00,,,0.00,0.000000,,2013-04-17 08:12:00,
2013-04-17 04:42:00,57.0,55.0,-100.00,SE,134,2.0,9.0,94,0.11,,,0.11,0.000000,,2013-04-17 08:42:00,
2013-04-17 04:52:00,57.0,55.0,-100.00,SE,134,2.0,9.0,94,0.11,,,0.11,0.000000,,2013-04-17 08:52:00,
2013-04-17 05:02:00,57.0,55.0,-100.00,SE,134,2.0,9.0,94,0.11,,,0.11,0.000000,,2013-04-17 09:02:00,
2013-04-17 05:12:00,57.0,55.0,-100.00,SE,134,2.0,9.0,94,0.11,,,0.11,0.000000,,2013-04-17 09:12:00,
2013-04-17 05:42:00,57.0,56.0,-100.00,SW,221,5.0,13.0,98,0.10,,,0.21,0.000000,,2013-04-17 09:42:00,
2013-04-17 05:53:00,57.0,56.0,-100.00,SW,221,5.0,13.0,98,0.10,,,0.21,0.000000,,2013-04-17 09:53:00,
2013-04-17 06:03:00,57.0,56.0,-100.00,SW,221,5.0,13.0,98,0.10,,,0.21,0.000000,,2013-04-17 10:03:00,
2013-04-17 06:12:00,57.0,56.0,-100.00,SW,221,5.0,13.0,98,0.10,,,0.21,0.000000,,2013-04-17 10:12:00,
2013-04-17 06:43:00,56.0,55.0,-100.00,SW,236,3.0,11.0,97,0.11,,,0.32,0.000000,,2013-04-17 10:43:00,
2013-04-17 06:53:00,56.0,55.0,-100.00,SW,236,3.0,11.0,97,0.11,,,0.32,0.000000,,2013-04-17 10:53:00,
2013-04-17 07:02:00,56.0,55.0,-100.00,SW,236,3.0,11.0,97,0.11,,,0.32,0.000000,,2013-04-17 11:02:00,
2013-04-17 07:12:00,56.0,55.0,-100.00,SW,236,3.0,11.0,97,0.11,,,0.32,0.000000,,2013-04-17 11:12:00,
2013-04-17 07:32:00,56.0,55.0,-100.00,ESE,113,1.0,6.0,98,0.00,,,0.32,3.000000,,2013-04-17 11:32:00,
2013-04-17 07:42:00,56.0,55.0,-100.00,ESE,113,1.0,6.0,98,0.00,,,0.32,3.000000,,2013-04-17 11:42:00,
2013-04-17 07:52:00,56.0,55.0,-100.00,ESE,113,1.0,6.0,98,0.00,,,0.32,3.000000,,2013-04-17 11:52:00,
2013-04-17 08:03:00,56.0,55.0,-100.00,ESE,113,1.0,6.0,98,0.00,,,0.32,3.000000,,2013-04-17 12:03:00,
2013-04-17 08:12:00,56.0,55.0,-100.00,ESE,113,1.0,6.0,98,0.00,,,0.32,3.000000,,2013-04-17 12:12:00,
2013-04-17 08:42:00,58.0,57.0,-100.00,NW,321,1.0,4.0,98,0.00,,,0.32,73.000000,,2013-04-17 12:42:00,
2013-04-17 08:52:00,58.0,57.0,-100.00,NW,321,1.0,4.0,98,0.00,,,0.32,73.000000,,2013-04-17 12:52:00,
2013-04-17 09:02:00,58.0,57.0,-100.00,NW,321,1.0,4.0,98,0.00,,,0.32,73.000000,,2013-04-17 13:02:00,
2013-04-17 09:12:00,58.0,57.0,-100.00,NW,321,1.0,4.0,98,0.00,,,0.32,73.000000,,2013-04-17 13:12:00,
2013-04-17 09:52:00,58.0,57.0,-100.00,West,281,1.0,2.0,98,0.00,,,0.32,60.000000,,2013-04-17 13:52:00,
2013-04-17 10:02:00,58.0,57.0,-100.00,West,281,1.0,2.0,98,0.00,,,0.32,60.000000,,2013-04-17 14:02:00,
2013-04-17 10:12:00,58.0,57.0,-100.00,West,281,1.0,2.0,98,0.00,,,0.32,60.000000,,2013-04-17 14:12:00,
2013-04-17 10:43:00,58.0,55.0,-100.00,West,272,0.0,1.0,91,0.00,,,0.32,83.000000,,2013-04-17 14:43:00,
2013-04-17 10:52:00,58.0,55.0,-100.00,West,272,0.0,1.0,91,0.00,,,0.32,83.000000,,2013-04-17 14:52:00,
2013-04-17 11:02:00,58.0,55.0,-100.00,West,272,0.0,1.0,91,0.00,,,0.32,83.000000,,2013-04-17 15:02:00,
2013-04-17 11:12:00,58.0,55.0,-100.00,West,272,0.0,1.0,91,0.00,,,0.32,83.000000,,2013-04-17 15:12:00,
2013-04-17 11:33:00,59.0,57.0,-100.00,WSW,257,0.0,0.0,93,0.00,,,0.32,102.000000,,2013-04-17 15:33:00,
2013-04-17 11:43:00,59.0,57.0,-100.00,WSW,257,0.0,0.0,93,0.00,,,0.32,102.000000,,2013-04-17 15:43:00,
2013-04-17 11:53:00,59.0,57.0,-100.00,WSW,257,0.0,0.0,93,0.00,,,0.32,102.000000,,2013-04-17 15:53:00,
2013-04-17 12:03:00,59.0,57.0,-100.00,WSW,257,0.0,0.0,93,0.00,,,0.32,102.000000,,2013-04-17 16:03:00,
2013-04-17 12:12:00,59.0,57.0,-100.00,WSW,257,0.0,0.0,93,0.00,,,0.32,102.000000,,2013-04-17 16:12:00,
2013-04-17 12:32:00,61.0,58.0,-100.00,West,267,0.0,0.0,89,0.00,,,0.32,216.000000,,2013-04-17 16:32:00,
2013-04-17 12:42:00,61.0,58.0,-100.00,West,267,0.0,0.0,89,0.00,,,0.32,216.000000,,2013-04-17 16:42:00,
2013-04-17 12:52:00,61.0,58.0,-100.00,West,267,0.0,0.0,89,0.00,,,0.32,216.000000,,2013-04-17 16:52:00,
2013-04-17 13:02:00,61.0,58.0,-100.00,West,267,0.0,0.0,89,0.00,,,0.32,216.000000,,2013-04-17 17:02:00,
2013-04-17 13:12:00,61.0,58.0,-100.00,West,267,0.0,0.0,89,0.00,,,0.32,216.000000,,2013-04-17 17:12:00,
2013-04-17 13:33:00,62.0,57.0,-100.00,SE,140,1.0,2.0,83,0.00,,,0.32,244.000000,,2013-04-17 17:33:00,
2013-04-17 13:42:00,62.0,57.0,-100.00,SE,140,1.0,2.0,83,0.00,,,0.32,244.000000,,2013-04-17 17:42:00,
2013-04-17 13:52:00,62.0,57.0,-100.00,SE,140,1.0,2.0,83,0.00,,,0.32,244.000000,,2013-04-17 17:52:00,
2013-04-17 14:02:00,62.0,57.0,-100.00,SE,140,1.0,2.0,83,0.00,,,0.32,244.000000,,2013-04-17 18:02:00,
2013-04-17 14:12:00,62.0,57.0,-100.00,SE,140,1.0,2.0,83,0.00,,,0.32,244.000000,,2013-04-17 18:12:00,
2013-04-17 14:42:00,65.0,57.0,-100.00,East,94,4.0,5.0,75,0.00,,,0.32,291.000000,,2013-04-17 18:42:00,
2013-04-17 14:52:00,65.0,57.0,-100.00,East,94,4.0,5.0,75,0.00,,,0.32,291.000000,,2013-04-17 18:52:00,
2013-04-17 15:02:00,65.0,57.0,-100.00,East,94,4.0,5.0,75,0.00,,,0.32,291.000000,,2013-04-17 19:02:00,
2013-04-17 15:12:00,65.0,57.0,-100.00,East,94,4.0,5.0,75,0.00,,,0.32,291.000000,,2013-04-17 19:12:00,
2013-04-17 15:42:00,68.0,55.0,-100.00,NNW,331,4.0,6.0,63,0.00,,,0.32,384.000000,,2013-04-17 19:42:00,
2013-04-17 15:52:00,68.0,55.0,-100.00,NNW,331,4.0,6.0,63,0.00,,,0.32,384.000000,,2013-04-17 19:52:00,
2013-04-17 16:03:00,68.0,55.0,-100.00,NNW,331,4.0,6.0,63,0.00,,,0.32,384.000000,,2013-04-17 20:03:00,
2013-04-17 16:12:00,68.0,55.0,-100.00,NNW,331,4.0,6.0,63,0.00,,,0.32,384.000000,,2013-04-17 20:12:00,
2013-04-17 16:33:00,71.0,54.0,-100.00,SE,126,2.0,10.0,56,0.00,,,0.32,439.000000,,2013-04-17 20:33:00,
2013-04-17 16:42:00,71.0,54.0,-100.00,SE,126,2.0,10.0,56,0.00,,,0.32,439.000000,,2013-04-17 20:42:00,
2013-04-17 16:52:00,71.0,54.0,-100.00,SE,126,2.0,10.0,56,0.00,,,0.32,439.000000,,2013-04-17 20:52:00,
2013-04-17 17:03:00,71.0,54.0,-100.00,SE,126,2.0,10.0,56,0.00,,,0.32,439.000000,,2013-04-17 21:03:00,
2013-04-17 17:12:00,71.0,54.0,-100.00,SE,126,2.0,10.0,56,0.00,,,0.32,439.000000,,2013-04-17 21:12:00,
2013-04-17 17:43:00,70.0,52.0,-100.00,ESE,117,3.0,5.0,53,0.00,,,0.32,266.000000,,2013-04-17 21:43:00,
2013-04-17 17:53:00,70.0,52.0,-100.00,ESE,117,3.0,5.0,53,0.00,,,0.32,266.000000,,2013-04-17 21:53:00,
2013-04-17 18:02:00,70.0,52.0,-100.00,ESE,117,3.0,5.0,53,0.00,,,0.32,266.000000,,2013-04-17 22:02:00,
2013-04-17 18:13:00,70.0,52.0,-100.00,ESE,117,3.0,5.0,53,0.00,,,0.32,266.000000,,2013-04-17 22:13:00,
2013-04-17 18:43:00,72.0,52.0,-100.00,ESE,121,2.0,5.0,50,0.00,,,0.32,214.000000,,2013-04-17 22:43:00,
2013-04-17 18:53:00,72.0,52.0,-100.00,ESE,121,2.0,5.0,50,0.00,,,0.32,214.000000,,2013-04-17 22:53:00,
2013-04-17 19:02:00,72.0,52.0,-100.00,ESE,121,2.0,5.0,50,0.00,,,0.32,214.000000,,2013-04-17 23:02:00,
2013-04-17 19:12:00,72.0,52.0,-100.00,ESE,121,2.0,5.0,50,0.00,,,0.32,214.000000,,2013-04-17 23:12:00,
2013-04-17 19:42:00,68.0,52.0,-100.00,SE,133,1.0,4.0,56,0.00,,,0.32,83.000000,,2013-04-17 23:42:00,
2013-04-17 19:52:00,68.0,52.0,-100.00,SE,133,1.0,4.0,56,0.00,,,0.32,83.000000,,2013-04-17 23:52:00,
2013-04-17 20:02:00,68.0,52.0,-100.00,SE,133,1.0,4.0,56,0.00,,,0.32,83.000000,,2013-04-18 00:02:00,
2013-04-17 20:12:00,68.0,52.0,-100.00,SE,133,1.0,4.0,56,0.00,,,0.32,83.000000,,2013-04-18 00:12:00,
2013-04-17 20:43:00,64.0,52.0,-100.00,NE,47,1.0,4.0,65,0.00,,,0.32,19.000000,,2013-04-18 00:43:00,
2013-04-17 20:52:00,64.0,52.0,-100.00,NE,47,1.0,4.0,65,0.00,,,0.32,19.000000,,2013-04-18 00:52:00,
2013-04-17 21:02:00,64.0,52.0,-100.00,NE,47,1.0,4.0,65,0.00,,,0.32,19.000000,,2013-04-18 01:02:00,
2013-04-17 21:12:00,64.0,52.0,-100.00,NE,47,1.0,4.0,65,0.00,,,0.32,19.000000,,2013-04-18 01:12:00,
2013-04-17 21:32:00,63.0,52.0,-100.00,SSE,150,4.0,5.0,68,0.00,,,0.32,0.000000,,2013-04-18 01:32:00,
2013-04-17 21:42:00,63.0,52.0,-100.00,SSE,150,4.0,5.0,68,0.00,,,0.32,0.000000,,2013-04-18 01:42:00,
2013-04-17 21:52:00,63.0,52.0,-100.00,SSE,150,4.0,5.0,68,0.00,,,0.32,0.000000,,2013-04-18 01:52:00,
2013-04-17 22:02:00,63.0,52.0,-100.00,SSE,150,4.0,5.0,68,0.00,,,0.32,0.000000,,2013-04-18 02:02:00,
2013-04-17 22:12:00,63.0,52.0,-100.00,SSE,150,4.0,5.0,68,0.00,,,0.32,0.000000,,2013-04-18 02:12:00,
2013-04-17 22:32:00,62.0,51.0,-100.00,SSE,147,3.0,4.0,68,0.00,,,0.32,0.000000,,2013-04-18 02:32:00,
2013-04-17 22:42:00,62.0,51.0,-100.00,SSE,147,3.0,4.0,68,0.00,,,0.32,0.000000,,2013-04-18 02:42:00,
2013-04-17 22:52:00,62.0,51.0,-100.00,SSE,147,3.0,4.0,68,0.00,,,0.32,0.000000,,2013-04-18 02:52:00,
2013-04-17 23:02:00,62.0,51.0,-100.00,SSE,147,3.0,4.0,68,0.00,,,0.32,0.000000,,2013-04-18 03:02:00,
2013-04-17 23:12:00,62.0,51.0,-100.00,SSE,147,3.0,4.0,68,0.00,,,0.32,0.000000,,2013-04-18 03:12:00,
2013-04-17 23:43:00,63.0,51.0,-100.00,SSE,147,4.0,6.0,66,0.00,,,0.32,0.000000,,2013-04-18 03:43:00,
2013-04-17 23:53:00,63.0,51.0,-100.00,SSE,147,4.0,6.0,66,0.00,,,0.32,0.000000,,2013-04-18 03:53:00,